Regional Weather Roundup
Issued by NWS Midland/Odessa, TX

Skip options and go directly to product.
Home | Oldest Version | Previous Version | Current Version | All | Graphics & Text | Save Text | Print | Product List | Glossary On

Skip product version selection by date and time.   
564
ASUS44 KMAF 021210
RWRMAF
MIDLAND AREA WEATHER ROUNDUP
NATIONAL WEATHER SERVICE MIDLAND TX
700 AM CDT TUE SEP 02 2014

...IN SOUTHWEST TEXAS AND SOUTHEAST NEW MEXICO...

CITY           SKY/WX    TMP DP  RH WIND       PRES   REMARKS
ALPINE         CLEAR     70  58  65 SW7       30.11S
ANDREWS        FAIR      75  58  55 S9        29.96R
ARTESIA        NOT AVBL
BIG SPRING     CLEAR     79  66  65 SE14      29.96S
CARLSBAD       CLEAR     69  55  60 SW6       29.93R
DRYDEN           N/A     80  68  66 E8        29.93R
FORT STOCKTON  CLEAR     75  57  53 S13       29.96R
GUAD PASS      CLEAR     72  40  31 SW10      30.12R
HOBBS          CLEAR     72  57  60 S8        29.98
MARFA          CLEAR     61  54  77 N6        30.11S
MIDLAND AIRPK  CLEAR     77  62  59 S10       29.96R
MIDLAND INTL   CLEAR     78  64  61 S15       29.95R
ODESSA         CLEAR     78  61  55 S13       29.96R
PECOS          CLEAR     69  55  60 CALM      29.90R
PRESIDIO       FAIR      81  59  48 N7        29.94R
SEMINOLE       CLEAR     73  57  57 S6        29.98R
SNYDER         CLEAR     75  65  71 S9        29.95R
WINK           CLEAR     78  58  49 SE13      29.90R
$$
...OTHER STATIONS IN TEXAS...

CITY           SKY/WX    TMP DP  RH WIND       PRES   REMARKS
ABILENE        CLEAR     78  68  71 S15       29.92R
AMARILLO       FOG       65  64  97 N7        29.99R VSB 1/4
AUSTIN         PTCLDY    75  74  96 S5        29.94R
BROWNSVILLE    CLEAR     80  78  94 E3        29.86R
CORPUS CHRISTI PTCLDY    79  76  90 SE5       29.89R
DALLAS FTW     PTCLDY    79  71  76 S12       29.91R
DEL RIO        MOCLDY    80  72  76 E9        29.91R
EL PASO        CLEAR     75  42  30 S8        29.98R
HOUSTON INT    PTCLDY    79  75  89 S3        29.95R
LUBBOCK        CLEAR     71  60  68 SE8       29.96R
SAN ANGELO     CLEAR     76  68  76 S10       29.93R
SAN ANTONIO    MOCLDY    80  75  84 SE10      29.95R
WACO           MOCLDY    78  74  87 S10       29.93R
WICHITA FALLS  NOT AVBL
$$
...OTHER LOCATIONS IN NEW MEXICO...

CITY           SKY/WX    TMP DP  RH WIND       PRES   REMARKS
ALAMAGORDO     CLEAR     61  36  39 NE3       30.01R
ALBUQUERQUE    CLEAR     64  40  41 CALM      30.13R
CANNON AFB     CLEAR     66  46  48 SW5       30.02R
CLOVIS           N/A     63  48  59 SW7       30.03R
HOLLOMAN AFB   CLEAR     62  37  40 NW5       30.00R
ROSWELL        CLEAR     65  44  46 CALM      29.96R
RUIDOSO        CLEAR     64  32  29 W8        30.23R
SANTA FE       CLEAR     58  31  35 N12       30.17R
TRUTH OR CONSE CLEAR     68  37  32 NW10      30.06R
TUCUMCARI      CLOUDY    66  60  81 NE5       30.03R
$$

USA.gov is the U.S. government's official web portal to all federal, state and local government web resources and services.